Location: Bauersach School (historical)
(38.0926°N, 89.4806°W)
Time: 02:12:49
(UTC+00:00)

SJ-12 - Pass Details

Date: 11 December 2025
Orbit: 518 x 525 km, 97.8° (Epoch: 15 January)

Event Time Altitude Azimuth Distance (km) Brightness Sun altitude
Rises 23:19:41 0° 153° (SSE) 2,624 7.2 -8.1°
Reaches altitude 10° 23:21:50 10° 146° (SSE) 1,741 6.3 -8.5°
Maximum altitude 23:25:25 45° 74° (ENE) 720 4.0 -9.2°
Drops below altitude 10° 23:29:01 10° 1° (N) 1,756 6.2 -9.8°
Sets 23:31:11 0° 355° (N) 2,649 7.1 -10.2°
